Terminal Aerodrome Forecast
Issued by NWS

Home | Current Version | Previous Version | Text Only | Print | Product List | Glossary On
Versions: 1 2 3 4 5 6 7 8 9 10 11 12 13 14 15 16 17 18 19 20 21 22 23 24 25 26 27 28
000
FTUS43 KGLD 150926 AAA
TAFMCK
TAF AMD
KMCK 150926Z 1509/1606 03012KT P6SM SCT010
      TEMPO 1510/1514 3SM BR BKN005
     FM151600 02012G17KT P6SM BKN015
     FM152100 07011KT P6SM SCT020=

USA.gov is the U.S. government's official web portal to all federal, state and local government web resources and services.